[[{"header":{"parameterUnit":"m.s-1","parameterCategory":1,"la1":30.2991,"la2":30.254,"lo1":-89.0895,"lo2":-89.0444,"dy":0.0017,"dx":0.0017,"nx":28,"ny":28,"refTime":"2023-07-28T03:00:00:Z","depth":0,"parameterNumber":2,"parameterNumberName":"U-component_of_WINDS"},"data":[0,0,0,0,0,0,0,0,0,0,0,0,0,0,0,0,0,0,0,0,0,0,0,0,0,0,0,0,0,0,0,0,0,0,0,0,0,0,0,0,0,0,0,0,0,0,0,0,0,0,0,0,0,0,0,0,0,0,-0.3368,-0.3368,0,-0.3326,-0.3325,-0.3325,-0.3284,-0.3284,-0.3283,-0.3283,-0.3239,-0.3238,-0.3237,0,0,0,0,0,0,0,0,0,0,0,0,0,-0.3416,-0.3415,-0.3368,-0.3368,-0.3367,-0.3326,-0.3325,-0.3324,-0.3285,-0.3284,-0.3283,-0.3283,-0.3239,-0.3238,-0.3237,0,0,0,0,0,0,0,0,0,0,0,0,0,-0.3386,-0.3415,-0.3369,-0.3342,-0.334,-0.3326,-0.3325,-0.3324,-0.3285,-0.3284,-0.3283,-0.3283,-0.3239,-0.3238,-0.3237,-0.3245,0,0,-0.3234,-0.3233,0,0,0,0,0,0,0,0,-0.3388,-0.3385,-0.3347,-0.3344,-0.3341,-0.331,-0.3325,-0.3298,-0.3285,-0.3306,-0.3283,-0.3282,-0.3263,-0.326,-0.3253,-0.3243,-0.3241,-0.3234,-0.3233,-0.3233,-0.3232,0,0,0,0,0,0,0,-0.339,-0.3386,-0.3351,-0.3346,-0.3343,-0.3333,-0.3328,-0.332,-0.3289,-0.3304,-0.3301,-0.3296,-0.3261,-0.3255,-0.3252,-0.3241,-0.3234,-0.3233,-0.3232,-0.3232,-0.3236,-0.3237,0,0,0,0,0,0,-0.3396,-0.3388,-0.3353,-0.335,-0.3363,-0.3333,-0.3327,-0.332,-0.3289,-0.3283,-0.3297,-0.3294,-0.3257,-0.3253,-0.325,-0.3258,-0.3233,-0.3232,-0.3231,-0.3235,-0.3236,-0.3237,0,0,0,0,0,0,-0.3397,-0.3393,-0.3354,-0.3368,-0.3363,-0.3333,-0.3326,-0.332,-0.3313,-0.3284,-0.3278,-0.3296,-0.3256,-0.3252,-0.3247,-0.3256,-0.3231,-0.323,-0.3234,-0.3235,-0.3237,-0.3275,0,0,0,0,0,0,-0.3399,-0.3394,-0.3397,-0.3369,-0.3362,-0.3352,-0.3326,-0.332,-0.3312,-0.3308,-0.3281,-0.3276,-0.3255,-0.3249,-0.3246,-0.3254,-0.3229,-0.3233,-0.3235,-0.3236,-0.3272,-0.3277,-0.3281,0,0,0,0,0,-0.3401,-0.3409,-0.3397,-0.3393,-0.3365,-0.3353,-0.3349,-0.3325,-0.3313,-0.3315,-0.3296,-0.3277,-0.3256,-0.3249,-0.3245,-0.3253,-0.3233,-0.3234,-0.3236,-0.3271,-0.3276,-0.3281,0,0,0,0,0,0,-0.3439,-0.3405,-0.3391,-0.3391,-0.3375,-0.3346,-0.3349,-0.3331,-0.3318,-0.3316,-0.3286,-0.328,-0.3279,-0.3266,-0.3259,-0.326,-0.3242,-0.3243,-0.3269,-0.3274,-0.3278,-0.3282,-0.3229,0,0,0,0,0,-0.3447,-0.344,-0.3411,-0.3413,-0.3406,-0.3379,-0.3373,-0.3355,-0.3338,-0.3331,-0.3311,-0.3295,-0.3285,-0.3278,-0.3267,-0.327,-0.3264,-0.3274,-0.3278,-0.3282,-0.3283,-0.3284,-0.3288,-0.3242,-0.3242,-0.3242,0,0,-0.3465,-0.3445,-0.3443,-0.3421,-0.3406,-0.34,-0.3373,-0.3368,-0.3363,-0.333,-0.3324,-0.331,-0.3289,-0.3289,-0.3287,-0.3277,-0.3294,-0.3284,-0.3287,-0.3286,-0.3286,-0.3291,-0.3295,-0.3244,-0.3243,-0.3243,0,0,-0.3493,-0.3477,-0.3478,-0.3464,-0.3443,-0.3425,-0.3425,-0.3399,-0.3388,-0.3382,-0.3357,-0.3351,-0.3333,-0.332,-0.3311,-0.3335,-0.3317,-0.3332,-0.3354,-0.3355,-0.3359,-0.3362,-0.3371,-0.3375,-0.3333,-0.3334,-0.3334,0,-0.3517,-0.3506,-0.348,-0.3476,-0.3468,-0.3438,-0.3438,-0.3426,-0.3403,-0.3397,-0.3386,-0.3364,-0.3348,-0.3345,-0.335,-0.3344,-0.3343,-0.3335,-0.3361,-0.3364,-0.3366,-0.3374,-0.3378,-0.3336,-0.3335,-0.3335,-0.3335,0,-0.3538,-0.3531,-0.3534,-0.3512,-0.3503,-0.3502,-0.3475,-0.347,-0.3454,-0.3437,-0.3431,-0.3411,-0.3396,-0.3393,-0.3377,-0.3387,-0.3382,-0.3366,-0.3347,-0.3373,-0.338,-0.3383,-0.3339,-0.3338,-0.3337,-0.3337,0,0,-0.3589,-0.3553,-0.3555,-0.3545,-0.3519,-0.3513,-0.351,-0.3495,-0.3491,-0.3476,-0.3473,-0.3459,-0.3445,-0.3435,-0.3416,-0.3418,-0.3439,-0.3402,-0.3401,-0.341,-0.3449,-0.3462,-0.3466,-0.3426,-0.3427,-0.3427,-0.3451,0,-0.3614,-0.3607,-0.3583,-0.3583,-0.3577,-0.3549,-0.3546,-0.353,-0.3514,-0.3507,-0.3489,-0.348,-0.3461,-0.3455,-0.3455,-0.3436,-0.3446,-0.3434,-0.3423,-0.3423,-0.343,-0.3469,-0.3482,-0.3506,-0.3454,-0.3454,-0.3454,0,-0.3641,-0.3628,-0.3628,-0.3603,-0.36,-0.3598,-0.3582,-0.3575,-0.3557,-0.3545,-0.3534,-0.3514,-0.3509,-0.3491,-0.3485,-0.3477,-0.3471,-0.3461,-0.3462,-0.346,-0.3441,-0.347,-0.3513,-0.3517,-0.3459,-0.3458,-0.3458,0,-0.368,-0.3662,-0.366,-0.3652,-0.3623,-0.3622,-0.361,-0.3591,-0.3583,-0.357,-0.3565,-0.3551,-0.3543,-0.3533,-0.351,-0.3499,-0.3506,-0.3486,-0.3497,-0.3497,-0.35,-0.35,-0.3544,-0.3495,-0.3495,-0.3495,-0.3495,0,-0.371,-0.3711,-0.3677,-0.3675,-0.3676,-0.3649,-0.365,-0.3635,-0.3618,-0.3614,-0.3588,-0.3584,-0.3553,-0.3546,-0.3528,-0.3525,-0.3522,-0.3513,-0.3508,-0.3515,-0.3517,-0.3512,-0.351,-0.3496,-0.3496,-0.3496,-0.3496,0,-0.3754,-0.373,-0.3726,-0.3699,-0.3692,-0.3694,-0.367,-0.3668,-0.3651,-0.3645,-0.3642,-0.3615,-0.3605,-0.3581,-0.3564,-0.3552,-0.3554,-0.3545,-0.3561,-0.3558,-0.357,-0.357,-0.3612,-0.3617,-0.3565,-0.3566,-0.3566,0,-0.3775,-0.3775,-0.3748,-0.3743,-0.3732,-0.3725,-0.3717,-0.369,-0.3684,-0.3663,-0.3663,-0.3651,-0.364,-0.3626,-0.3604,-0.3592,-0.3582,-0.3598,-0.358,-0.3588,-0.3583,-0.3584,-0.3584,-0.3602,-0.3603,-0.3604,-0.3604,0,-0.3815,-0.3804,-0.3794,-0.3781,-0.3772,-0.376,-0.3747,-0.3744,-0.3714,-0.3708,-0.3698,-0.3689,-0.3673,-0.3661,-0.3645,-0.3633,-0.3614,-0.361,-0.3612,-0.362,-0.3629,-0.3625,-0.3572,-0.3609,-0.3609,-0.3608,-0.3608,-0.3608,-0.3848,-0.3848,-0.3829,-0.3819,-0.3806,-0.3794,-0.3791,-0.3773,-0.3764,-0.3749,-0.3733,-0.3725,-0.3706,-0.3683,-0.3672,-0.3664,-0.3655,-0.3657,-0.3658,-0.3659,-0.3663,-0.363,-0.3661,-0.3661,-0.3661,-0.3661,-0.3661,0,-0.3888,-0.3875,-0.3866,-0.3848,-0.384,-0.3823,-0.3807,-0.3802,-0.3795,-0.3779,-0.3769,-0.3758,-0.3746,-0.3724,-0.3711,-0.371,-0.3701,-0.3707,-0.3707,-0.3705,-0.3672,-0.3672,-0.3715,-0.3715,-0.3715,-0.3715,-0.3715,-0.3715,-0.3908,-0.3906,-0.3892,-0.3883,-0.387,-0.3861,-0.3854,-0.3843,-0.383,-0.3819,-0.3809,-0.3795,-0.3777,-0.3762,-0.3751,-0.3745,-0.3742,-0.3751,-0.3742,-0.3712,-0.3707,-0.3702,-0.3702,-0.3751,-0.3751,-0.3776,-0.3776,-0.3776]},{"header":{"parameterUnit":"m.s-1","parameterCategory":1,"la1":30.2991,"la2":30.254,"lo1":-89.0895,"lo2":-89.0444,"dy":0.0017,"dx":0.0017,"nx":28,"ny":28,"refTime":"2023-07-28T03:00:00:Z","depth":0,"parameterNumber":3,"parameterNumberName":"V-component_of_WINDS"},"data":[0,0,0,0,0,0,0,0,0,0,0,0,0,0,0,0,0,0,0,0,0,0,0,0,0,0,0,0,0,0,0,0,0,0,0,0,0,0,0,0,0,0,0,0,0,0,0,0,0,0,0,0,0,0,0,0,0,0,1.7654,1.7653,0,1.7612,1.7611,1.7611,1.7547,1.7546,1.7545,1.7543,1.7501,1.7501,1.7501,0,0,0,0,0,0,0,0,0,0,0,0,0,1.7679,1.7679,1.7654,1.7653,1.7653,1.7612,1.7611,1.7611,1.7547,1.7546,1.7544,1.7543,1.7501,1.7501,1.7501,0,0,0,0,0,0,0,0,0,0,0,0,0,1.7656,1.7679,1.7654,1.7616,1.7612,1.7612,1.7611,1.761,1.7547,1.7546,1.7544,1.7542,1.7501,1.7501,1.7501,1.7534,0,0,1.75,1.75,0,0,0,0,0,0,0,0,1.7657,1.7655,1.7622,1.7619,1.7614,1.7583,1.7604,1.7585,1.7548,1.7572,1.7543,1.7541,1.753,1.7527,1.7523,1.7532,1.753,1.75,1.75,1.75,1.75,0,0,0,0,0,0,0,1.7659,1.7656,1.7637,1.7622,1.7617,1.7601,1.7596,1.76,1.7561,1.757,1.7565,1.7561,1.7527,1.7523,1.7521,1.7529,1.75,1.75,1.75,1.75,1.7562,1.7564,0,0,0,0,0,0,1.7666,1.7658,1.7638,1.7636,1.7632,1.7602,1.7596,1.7595,1.7561,1.7554,1.7562,1.7558,1.7524,1.7522,1.752,1.7555,1.75,1.75,1.75,1.756,1.7562,1.7564,0,0,0,0,0,0,1.7667,1.7665,1.764,1.7646,1.7641,1.7603,1.7602,1.7595,1.7591,1.7555,1.7548,1.7566,1.7523,1.752,1.753,1.7553,1.75,1.75,1.7558,1.7561,1.7563,1.7627,0,0,0,0,0,0,1.7668,1.7665,1.7678,1.7646,1.7641,1.7652,1.7604,1.7595,1.759,1.7584,1.7556,1.755,1.7521,1.7531,1.753,1.7551,1.75,1.7556,1.7559,1.7562,1.7623,1.7631,1.7639,0,0,0,0,0,1.7669,1.7698,1.7679,1.7677,1.7656,1.7654,1.7651,1.7617,1.7593,1.7604,1.7581,1.7551,1.755,1.7533,1.7531,1.7553,1.7554,1.7558,1.7562,1.7619,1.763,1.7639,0,0,0,0,0,0,1.7734,1.7693,1.7672,1.7691,1.7676,1.7643,1.7657,1.7629,1.7621,1.7616,1.7575,1.7569,1.7584,1.757,1.755,1.7582,1.7548,1.7551,1.7591,1.7601,1.7609,1.7612,1.75,0,0,0,0,0,1.775,1.7752,1.7716,1.7737,1.7731,1.7695,1.7693,1.7668,1.7651,1.7644,1.7622,1.7607,1.7603,1.7601,1.7596,1.762,1.7612,1.7634,1.7642,1.7649,1.7653,1.7663,1.7672,1.7577,1.7577,1.7577,0,0,1.7785,1.7763,1.7766,1.775,1.7735,1.7737,1.769,1.7695,1.7696,1.7645,1.7653,1.7637,1.7616,1.7634,1.764,1.7622,1.7677,1.7654,1.766,1.766,1.7668,1.7677,1.7685,1.7579,1.7579,1.7578,0,0,1.7848,1.7832,1.7847,1.7833,1.7811,1.7787,1.7791,1.7761,1.7748,1.7756,1.7717,1.7717,1.7712,1.7699,1.7692,1.7749,1.772,1.7748,1.779,1.7801,1.7808,1.7815,1.7834,1.7841,1.7752,1.7752,1.7752,0,1.7894,1.7895,1.7858,1.7865,1.7858,1.7812,1.7826,1.7815,1.7793,1.7789,1.7769,1.776,1.7743,1.7756,1.777,1.7766,1.7768,1.7751,1.781,1.7816,1.7822,1.784,1.7847,1.7756,1.7755,1.7755,1.7755,0,1.7951,1.7953,1.7968,1.7947,1.7942,1.7953,1.7917,1.7916,1.7892,1.787,1.7878,1.7856,1.7844,1.7846,1.7822,1.7855,1.7844,1.7818,1.7782,1.7835,1.7851,1.7858,1.7761,1.7759,1.7758,1.7758,0,0,1.8055,1.8013,1.8019,1.8008,1.798,1.798,1.7988,1.7977,1.7977,1.7963,1.7968,1.7964,1.7939,1.793,1.7905,1.7914,1.7959,1.7886,1.7885,1.79,1.7992,1.8012,1.8021,1.794,1.7941,1.7942,1.7994,0,1.8112,1.8123,1.809,1.811,1.811,1.8065,1.8072,1.8056,1.8035,1.8032,1.8009,1.8007,1.7974,1.7969,1.7976,1.7952,1.7977,1.7948,1.7943,1.7944,1.7949,1.8029,1.805,1.81,1.8,1.8001,1.8002,0,1.818,1.8169,1.8189,1.8158,1.8157,1.8164,1.815,1.8148,1.8128,1.8112,1.8103,1.8072,1.8077,1.8043,1.8049,1.803,1.8026,1.8014,1.8015,1.8013,1.7976,1.8028,1.8115,1.8123,1.8011,1.8011,1.801,0,1.8253,1.8243,1.8253,1.8245,1.821,1.8216,1.8202,1.818,1.8174,1.8162,1.8158,1.8147,1.8141,1.8133,1.81,1.8078,1.8109,1.8073,1.8096,1.8096,1.8104,1.8104,1.8191,1.8103,1.8103,1.8102,1.8102,0,1.832,1.8333,1.8284,1.8291,1.8304,1.8265,1.8279,1.8261,1.8241,1.8243,1.8204,1.8206,1.8163,1.816,1.8134,1.8142,1.814,1.8126,1.8119,1.813,1.8131,1.8126,1.8122,1.8104,1.8104,1.8104,1.8103,0,1.8403,1.8371,1.8378,1.8344,1.8336,1.8348,1.8318,1.8322,1.8299,1.8301,1.8299,1.8262,1.8256,1.8223,1.821,1.8193,1.8209,1.8196,1.8216,1.8211,1.8236,1.8234,1.8322,1.8331,1.8238,1.8239,1.824,0,1.8447,1.8456,1.8423,1.8421,1.8408,1.8406,1.84,1.8362,1.8357,1.8334,1.8341,1.8332,1.8323,1.8315,1.8287,1.8276,1.8262,1.8293,1.826,1.8269,1.8261,1.8261,1.8261,1.8301,1.8302,1.8303,1.8304,0,1.8529,1.8513,1.8506,1.8493,1.8488,1.8476,1.8462,1.8462,1.842,1.8417,1.841,1.8403,1.8389,1.838,1.8364,1.8349,1.8319,1.8314,1.8319,1.8329,1.834,1.8333,1.8235,1.8312,1.8311,1.8311,1.831,1.831,1.8594,1.8599,1.8576,1.857,1.8555,1.8543,1.8544,1.8521,1.8515,1.85,1.8478,1.8474,1.8452,1.8428,1.8415,1.8411,1.8393,1.84,1.8402,1.8404,1.8409,1.8341,1.8408,1.8407,1.8407,1.8407,1.8407,0,1.8673,1.8656,1.865,1.8631,1.8626,1.8598,1.8581,1.8578,1.8575,1.8557,1.8549,1.854,1.8531,1.8502,1.849,1.8492,1.8478,1.849,1.8489,1.8486,1.8425,1.8422,1.8502,1.8502,1.8502,1.8502,1.8502,1.8502,1.8713,1.8721,1.8702,1.8701,1.8684,1.868,1.8672,1.866,1.8645,1.8638,1.863,1.8611,1.8588,1.8573,1.8564,1.8555,1.8552,1.8569,1.8556,1.85,1.849,1.8482,1.8478,1.8568,1.8569,1.8616,1.8617,1.8617]}]]